SCP
0 0 0 0 0 0 0 0 0 0 0 0 0 0 0 0 1 1 1 1 1 1 1 0 0 0 0 0 0 0 0 0 0 0 0 0 0 0 0 0 0 0 0
0 0 0 0 0 0 0 0 0 0 0 0 0 0 0 1 1 1 1 1 1 0 0 0 0 0 0 0 0 0 0 0 0 0 0 0 0 0 0 0 0 0 0
0 0 0 0 0 0 0 0 0 0 0 0 0 0 0 0 0 0 0 0 0 0 0 0 0 0 0 0 0 0 0 0 0 0 0 0 0 0 0 0 0 0 0
0 0 0 0 0 0 0 0 0 0 0 0 0 0 0 0 0 0 0 0 0 0 0 0 0 0 0 0 0 0 0 0 0 0 0 0 0 0 0 0 0 0 0
0 0 0 1 1 1 0 0 0 0 0 0 0 0 0 0 0 0 0 0 0 0 0 0 0 0 0 0 0 0 0 0 0 0 0 0 0 0 0 0 0 0 0
0 0 0 1 1 1 1 1 0 0 0 0 0 0 0 0 0 0 0 0 0 0 0 0 0 0 0 0 0 0 0 0 0 0 0 0 0 0 0 0 0 0 0
0 0 0 0 1 1 1 1 1 0 0 1 0 0 0 0 0 0 0 0 0 0 0 0 0 0 0 0 0 0 0 0 0 0 0 0 0 0 0 0 0 0 0
0 0 0 0 0 0 0 1 1 1 1 1 0 0 0 0 0 0 0 0 0 0 0 0 0 0 0 0 0 0 0 0 0 0 0 0 0 0 0 0 0 0 0
0 0 0 0 0 0 0 0 1 0 0 0 0 0 0 0 0 0 0 0 0 0 0 0 0 0 0 0 0 0 0 0 0 0 0 0 0 0 0 0 0 0 0
0 0 0 0 0 0 0 0 0 0 0 0 0 0 0 0 0 0 0 0 0 0 0 0 0 0 0 0 0 0 0 0 0 0 0 0 0 0 0 0 0 0 0
0 0 0 0 0 0 0 0 0 0 0 0 0 0 0 0 0 0 0 0 0 0 0 0 0 0 0 0 0 0 0 0 0 0 0 0 0 0 0 0 0 0 0
0 0 0 0 0 0 0 0 0 0 0 0 0 0 0 0 0 0 0 0 0 0 0 0 0 0 0 0 0 0 0 0 0 0 0 0 0 0 0 0 0 0 0
0 0 0 0 0 0 0 0 0 0 0 0 0 0 0 0 0 0 0 0 0 0 0 0 0 0 0 0 0 0 0 0 0 0 0 0 0 0 0 0 0 0 0
0 0 0 0 0 0 0 0 0 0 0 0 0 0 0 0 0 0 0 0 0 0 0 0 0 0 0 0 0 0 0 0 0 0 0 0 0 0 0 0 0 0 0
0 0 0 0 0 0 0 0 0 0 0 0 0 0 0 0 0 0 0 0 0 0 0 0 0 0 0 0 0 0 0 0 0 0 0 0 0 0 0 0 0 0 0
0 0 0 0 0 0 0 0 0 0 0 0 0 0 0 0 0 0 0 0 0 0 0 0 0 0 0 0 0 0 0 0 0 0 0 0 0 0 0 0 0 0 0
0 0 0 0 0 0 0 0 0 0 0 0 0 0 0 0 0 0 0 0 0 0 0 0 0 0 0 0 0 0 0 0 0 0 0 0 0 0 0 0 0 0 0
0 0 0 0 0 0 0 0 0 0 0 0 0 0 0 0 0 0 0 0 0 0 0 0 0 0 0 0 0 0 0 0 0 0 0 0 0 0 0 0 0 0 0
0 0 0 0 0 0 0 0 0 0 0 0 0 0 0 0 0 0 0 0 0 0 0 0 0 0 0 0 0 0 0 0 0 0 0 0 0 0 0 0 0 0 0
0 0 0 0 0 0 0 0 0 0 0 0 0 0 0 0 0 0 0 0 0 0 0 0 0 0 0 0 0 0 0 0 0 0 0 0 0 0 0 0 0 0 0
0 0 0 0 0 0 0 0 0 0 0 0 0 0 0 0 0 0 0 0 0 0 0 0 0 0 0 0 0 0 0 0 0 0 0 0 0 0 0 0 0 0 0
0 0 0 0 0 0 0 0 0 0 0 0 0 0 0 0 0 0 0 0 0 0 0 0 0 0 0 0 0 0 0 0 0 0 0 0 0 0 0 0 0 0 0
0 0 0 0 0 0 0 0 0 0 0 0 0 0 0 0 0 0 0 0 0 0 0 0 0 0 0 0 0 0 0 0 0 0 0 0 0 0 0 0 0 0 0
0 0 0 0 0 0 0 0 0 0 0 0 0 0 0 0 0 0 0 0 0 0 0 0 0 0 0 0 0 0 0 0 0 0 0 0 0 0 0 0 0 0 0
0 0 0 0 0 0 0 0 0 0 0 0 0 0 0 0 0 0 0 0 0 0 0 0 0 0 0 0 0 0 0 0 0 0 0 0 0 0 0 0 0 0 0
0 0 0 0 0 0 0 0 0 0 0 0 0 0 0 0 0 0 0 0 0 0 0 0 0 0 0 0 0 0 0 0 0 0 0 0 0 0 0 0 0 0 0
Wind_Speed
10 14 17 16 16 15 13 12 11 10 10 10 10 10 9 9 8 7 8 9 11 12 12 12 12 11 11 11 10 10 11 11 11 12 12 12 12 13 12 10 7 10 11
13 16 15 15 16 15 14 13 11 11 11 11 11 10 10 10 10 10 10 11 11 11 11 10 9 9 9 9 9 9 9 9 10 10 8 10 11 12 13 12 11 10 12
13 16 16 13 16 16 14 13 12 11 12 12 12 11 11 10 10 9 9 9 9 9 9 8 8 8 8 8 7 7 8 8 8 7 3 6 9 10 11 12 12 12 13
13 15 15 13 15 16 15 14 12 12 12 13 12 11 10 9 7 7 7 6 7 8 8 8 7 7 7 7 7 7 7 7 7 3 4 5 6 9 10 11 11 12 12
12 13 13 11 14 15 15 14 13 12 12 13 13 11 10 8 6 5 5 5 6 7 7 7 7 7 7 7 7 7 7 7 5 3 5 5 6 9 10 11 11 11 11
13 12 12 11 13 14 15 15 14 14 13 13 12 11 9 8 7 6 6 6 7 7 7 7 7 7 7 7 7 7 7 6 2 5 5 5 7 10 11 12 12 11 11
13 12 13 12 12 12 13 15 14 14 14 13 12 10 9 9 8 8 8 8 8 7 7 7 8 8 8 8 8 8 7 6 5 5 5 5 7 9 9 10 10 11 11
12 12 12 12 11 11 11 12 13 14 13 12 11 10 10 10 10 10 9 9 8 8 8 8 8 8 8 8 8 9 8 4 5 5 5 6 7 7 7 7 7 8 8
11 11 11 14 13 11 10 11 11 11 11 11 11 11 10 10 11 10 9 9 9 9 9 9 8 8 8 8 9 9 9 6 5 4 5 5 6 6 6 6 6 6 7
11 12 13 13 14 14 13 12 11 11 11 10 10 10 10 9 9 8 8 9 10 10 10 9 9 9 9 9 9 8 7 4 6 5 4 5 6 5 5 5 5 5 6
12 13 14 14 14 13 13 12 12 11 11 11 10 11 11 10 10 9 10 9 10 10 10 10 9 9 9 9 8 7 4 3 5 4 4 6 5 4 4 4 4 5 6
18 18 15 16 15 14 11 10 11 11 11 12 11 12 10 9 7 7 7 7 9 9 10 10 10 8 5 4 5 3 3 4 3 3 4 5 4 3 3 4 5 6 7
17 17 17 17 16 15 11 10 8 8 9 12 13 13 10 9 7 7 6 7 8 9 8 8 7 4 3 3 2 3 3 2 2 2 3 5 3 1 3 4 5 6 7
15 18 18 18 16 16 14 11 10 9 9 9 12 14 11 8 8 8 6 7 7 5 6 5 4 5 4 4 4 4 3 2 2 1 3 5 3 0 4 5 6 7 8
16 17 18 19 19 17 15 12 12 12 12 12 11 13 14 10 10 9 8 7 7 6 6 5 5 6 5 5 3 4 3 3 3 2 2 3 4 0 5 7 8 9 11
18 17 16 19 20 18 16 15 13 13 12 13 12 15 16 12 10 10 10 9 8 7 6 6 6 6 5 4 4 4 4 4 4 4 3 3 5 5 6 8 9 10 11
17 16 17 18 19 20 20 18 13 13 13 13 12 15 16 14 13 11 10 9 8 7 7 6 7 5 5 5 5 4 3 4 4 5 5 4 5 9 9 9 9 10 9
15 16 17 14 18 21 19 18 13 13 14 13 12 13 17 17 15 12 10 10 9 8 8 7 7 6 5 5 4 4 4 4 5 5 5 4 4 5 8 10 9 9 8
15 15 16 18 19 20 19 15 14 13 13 12 12 12 15 17 16 13 11 10 11 8 8 8 7 6 6 6 4 4 4 4 4 5 5 5 5 4 5 8 10 9 7
12 13 14 15 18 16 14 13 12 13 13 12 12 13 16 15 17 15 11 12 12 9 9 9 9 6 6 6 6 4 3 3 4 5 6 5 4 4 4 4 4 6 8
9 9 10 13 13 13 11 12 13 13 12 12 12 14 16 16 17 16 11 13 12 11 12 12 9 10 7 7 6 4 3 3 4 4 4 5 5 4 4 3 3 3 3
12 11 9 9 10 12 11 10 9 10 10 11 10 13 16 16 17 15 15 13 14 12 14 14 12 9 7 9 6 5 5 4 5 5 5 5 5 4 4 3 4 4 4
16 15 11 9 7 10 11 8 7 7 7 9 11 11 14 15 16 16 17 15 15 14 14 16 15 14 10 10 6 5 6 7 5 6 7 6 6 5 4 4 5 5 5
18 16 15 12 7 5 8 9 11 10 10 10 8 9 11 14 15 16 17 17 16 14 15 15 15 13 12 11 7 5 3 2 6 6 7 8 8 7 6 5 5 6 6
18 17 16 15 11 6 4 8 10 10 9 7 7 9 11 12 14 16 17 16 16 14 15 16 16 15 12 12 9 6 5 3 4 5 6 7 8 8 6 6 5 5 6
19 19 18 17 16 12 6 6 9 11 10 10 9 8 9 9 11 16 16 16 16 14 16 16 16 18 14 13 11 8 8 7 7 6 5 5 6 7 8 6 6 6 6
Wind_Direction
180 172 165 177 170 167 163 159 154 150 145 141 138 135 130 124 117 111 109 108 103 97 92 88 86 82 78 74 69 65 63 61 61 63 66 72 79 80 71 54 50 66 53
164 169 165 176 172 170 168 164 161 159 156 152 147 140 133 125 115 108 105 105 102 97 92 88 85 82 78 74 71 69 68 66 62 61 64 82 78 81 77 67 56 60 56
164 168 171 177 174 173 172 170 169 170 167 161 152 142 134 126 119 114 110 106 105 102 98 94 88 82 76 72 70 72 75 76 72 65 61 88 87 84 82 75 69 65 61
169 171 177 173 176 175 175 175 177 180 176 166 155 146 140 134 132 131 123 115 113 109 103 98 94 87 78 71 68 69 73 78 77 72 90 81 85 86 87 82 74 68 65
174 178 176 174 180 179 179 180 183 187 178 166 156 150 148 146 150 154 151 138 126 118 113 108 103 96 87 79 73 71 69 67 67 86 88 83 79 83 89 88 81 73 67
176 181 177 182 186 186 185 185 187 183 175 165 158 157 158 162 167 170 170 158 143 135 128 120 114 104 96 87 80 77 71 54 49 76 78 76 78 78 82 85 83 77 72
177 183 182 182 187 188 187 187 183 178 172 167 166 167 173 179 180 180 176 168 158 149 140 131 121 113 104 93 85 79 70 54 60 69 63 66 70 75 76 78 79 76 73
181 186 188 181 186 184 186 184 180 177 174 174 176 178 182 185 185 184 181 175 168 160 149 136 127 120 109 98 88 81 71 55 83 73 66 63 48 64 67 66 70 72 70
189 193 196 192 192 189 188 185 182 180 182 182 185 185 183 182 185 187 184 180 173 163 150 140 133 122 111 100 90 81 73 56 78 72 64 53 31 55 58 53 54 60 62
198 202 201 201 200 199 197 193 190 187 187 185 187 182 172 175 185 184 183 181 175 163 152 145 136 125 113 102 93 85 78 67 69 71 57 46 30 49 56 55 56 60 64
207 208 206 205 206 206 206 201 200 196 192 185 187 171 170 189 190 184 189 180 173 161 156 148 137 123 115 104 96 94 86 70 71 59 50 29 27 48 60 66 71 76 78
209 206 207 208 207 207 207 206 208 207 202 199 196 186 189 191 187 187 175 181 162 154 157 150 133 127 133 121 110 114 80 77 73 62 50 15 19 52 81 88 89 89 88
213 204 206 208 207 206 204 204 203 202 203 202 198 190 185 183 179 186 179 171 164 163 163 147 148 155 145 124 118 95 82 75 65 63 50 2 356 66 113 112 107 101 98
220 212 206 204 206 206 204 202 201 198 198 197 195 189 185 185 185 185 185 180 174 172 163 161 157 149 138 128 120 111 106 96 86 76 57 347 333 132 130 123 115 109 105
229 221 212 205 205 203 204 204 203 201 199 198 193 192 192 189 189 186 185 183 181 172 171 167 163 156 150 143 137 133 125 115 119 126 111 4 338 20 130 123 117 113 103
236 230 219 212 209 205 205 205 204 203 200 199 195 195 195 193 190 187 186 186 184 179 173 171 166 162 156 151 149 146 148 142 138 145 133 106 38 47 105 113 111 109 102
239 235 225 219 213 211 210 210 208 205 202 201 198 197 195 195 191 189 187 188 185 175 166 164 163 163 158 157 155 153 153 152 147 144 141 131 98 65 73 91 96 95 93
243 233 225 215 215 215 214 213 211 208 204 203 200 197 197 196 192 189 188 189 180 173 172 169 167 167 168 168 163 157 154 150 147 145 140 133 116 101 81 72 75 79 81
249 238 227 216 216 216 215 216 214 212 210 208 204 199 198 197 194 191 190 184 176 177 177 172 173 172 171 165 153 150 154 154 150 150 139 127 114 107 99 78 64 57 60
263 246 234 223 219 216 214 217 218 217 214 213 211 206 199 197 194 193 191 182 178 178 179 178 171 172 166 151 135 130 139 150 163 155 148 135 125 118 112 105 91 71 60
302 277 251 236 223 212 207 207 211 214 213 214 215 211 206 201 196 196 189 183 183 186 184 178 167 167 164 158 143 135 133 158 176 171 168 159 148 139 126 122 116 117 100
346 334 304 262 234 216 213 210 216 219 219 217 216 216 212 207 201 199 193 187 188 188 186 183 176 175 169 185 176 153 163 183 201 195 188 182 172 165 154 143 134 134 133
11 360 346 318 263 225 214 210 208 221 231 219 217 217 214 212 208 205 201 193 192 192 191 189 187 183 180 190 216 195 178 185 166 182 199 196 193 192 181 164 156 149 145
15 10 8 0 337 260 217 213 210 214 223 227 222 219 214 213 214 212 209 203 198 197 195 193 193 195 188 187 198 232 259 177 167 166 189 203 206 212 200 182 170 163 161
21 20 17 18 17 355 246 228 229 236 243 247 235 225 217 211 216 218 217 211 205 203 200 194 193 197 198 195 188 178 186 203 211 169 174 184 200 210 204 196 181 174 173
27 27 25 25 25 13 343 270 250 251 253 252 243 234 221 212 214 219 221 217 213 208 205 199 196 199 201 204 198 189 179 180 191 191 173 170 187 187 193 194 191 183 180